Location: Asheville, NC
(35.6000°N, 82.5500°W)
Time: 17:12:19
(UTC-05:00)

JUGNU - Pass Details

Date: 07 January 2018
Orbit: 837 x 864 km, 20.0° (Epoch: 20 January)

Event Time Altitude Azimuth Distance (km) Brightness Sun altitude
Rises 20:45:22 0° 244° (WSW) 3,422 ? -38.4°
Reaches altitude 10° 20:49:47 10° 214° (SW) 2,483 ? -39.3°
Enters shadow 20:50:19 11° 209° (SSW) 2,425 ? -39.4°
